| time (UTC) | temp F | wind direction | speed MPH | gust MPH | rain 1hr in | rain 24hr in | rain mn in | humidity % | barometer mb |
| 20260503002122 | 66 | 219 | 1.0 | 4.0 | 0.00 | 1.80 | 1.09 | 45 | 1015.6 |
| 20260503001119 | 67 | 351 | 2.0 | 4.0 | 0.00 | 1.85 | 1.09 | 43 | 1015.5 |
| 20260503000617 | 67 | 24 | 2.0 | 6.0 | 0.00 | 1.86 | 1.09 | 43 | 1015.4 |
| 20260503000347 | 67 | 42 | 2.0 | 7.0 | 0.00 | 1.86 | 1.09 | 42 | 1015.4 |
| 20260502235615 | 68 | 25 | 2.0 | 8.0 | 0.00 | 1.87 | 1.09 | 41 | 1015.4 |
| 20260502235115 | 68 | 37 | 2.0 | 8.0 | 0.00 | 1.94 | 1.09 | 41 | 1015.3 |
| 20260502234614 | 69 | 335 | 3.0 | 7.0 | 0.00 | 1.95 | 1.09 | 40 | 1015.2 |
| 20260502234113 | 69 | 53 | 3.0 | 9.0 | 0.00 | 1.95 | 1.09 | 40 | 1015.1 |
| 20260502233613 | 69 | 34 | 2.0 | 9.0 | 0.00 | 1.95 | 1.09 | 39 | 1015.0 |
| 20260502233113 | 70 | 50 | 2.0 | 6.0 | 0.00 | 1.95 | 1.09 | 38 | 1014.9 |
| 20260502232613 | 70 | 57 | 2.0 | 7.0 | 0.00 | 1.95 | 1.09 | 40 | 1014.9 |
| 20260502232113 | 70 | 326 | 3.0 | 7.0 | 0.00 | 1.97 | 1.09 | 38 | 1014.8 |
| 20260502231612 | 70 | 5 | 3.0 | 9.0 | 0.00 | 1.99 | 1.09 | 38 | 1014.8 |
| 20260502231111 | 71 | 351 | 3.0 | 10.0 | 0.00 | 1.99 | 1.09 | 38 | 1014.8 |
| 20260502230611 | 71 | 338 | 3.0 | 10.0 | 0.00 | 1.99 | 1.09 | 37 | 1014.7 |
| 20260502230112 | 71 | 323 | 4.0 | 9.0 | 0.00 | 1.99 | 1.09 | 38 | 1014.7 |
| 20260502225611 | 71 | 358 | 4.0 | 9.0 | 0.00 | 1.99 | 1.09 | 37 | 1014.7 |
| 20260502225111 | 71 | 219 | 3.0 | 11.0 | 0.00 | 1.99 | 1.09 | 41 | 1014.6 |
| 20260502224611 | 72 | 69 | 3.0 | 11.0 | 0.00 | 1.99 | 1.09 | 41 | 1014.6 |
| 20260502224111 | 72 | 342 | 3.0 | 7.0 | 0.00 | 2.00 | 1.09 | 41 | 1014.5 |
| 20260502223611 | 72 | 328 | 3.0 | 8.0 | 0.00 | 2.00 | 1.09 | 41 | 1014.4 |
| 20260502223112 | 72 | 325 | 3.0 | 8.0 | 0.00 | 2.01 | 1.09 | 40 | 1014.4 |
| 20260502222611 | 72 | 46 | 4.0 | 12.0 | 0.00 | 2.02 | 1.09 | 41 | 1014.2 |
| 20260502222111 | 72 | 330 | 4.0 | 12.0 | 0.00 | 2.02 | 1.09 | 41 | 1014.3 |
| 20260502221611 | 72 | 41 | 4.0 | 11.0 | 0.00 | 2.02 | 1.09 | 40 | 1014.2 |
| 20260502221110 | 72 | 66 | 4.0 | 11.0 | 0.00 | 2.03 | 1.09 | 40 | 1014.1 |
| 20260502220610 | 72 | 63 | 4.0 | 13.0 | 0.00 | 2.05 | 1.09 | 40 | 1014.1 |
| 20260502220108 | 72 | 1 | 5.0 | 13.0 | 0.00 | 2.06 | 1.09 | 39 | 1014.1 |
| 20260502215840 | 72 | 325 | 5.0 | 12.0 | 0.00 | 2.08 | 1.09 | 40 | 1014.0 |
| 20260502215109 | 73 | 330 | 4.0 | 12.0 | 0.00 | 2.09 | 1.09 | 39 | 1014.0 |
| 20260502214610 | 73 | 98 | 4.0 | 13.0 | 0.00 | 2.10 | 1.09 | 40 | 1013.9 |
| 20260502214109 | 72 | 36 | 4.0 | 13.0 | 0.00 | 2.12 | 1.09 | 39 | 1013.9 |
| 20260502213609 | 73 | 39 | 4.0 | 11.0 | 0.00 | 2.15 | 1.09 | 40 | 1014.0 |
| 20260502213109 | 73 | 13 | 3.0 | 8.0 | 0.00 | 2.16 | 1.09 | 40 | 1013.9 |
| 20260502212609 | 73 | 322 | 3.0 | 7.0 | 0.00 | 2.17 | 1.09 | 38 | 1013.9 |
| 20260502212109 | 73 | 5 | 4.0 | 10.0 | 0.00 | 2.18 | 1.09 | 38 | 1013.9 |
| 20260502211608 | 73 | 41 | 5.0 | 12.0 | 0.00 | 2.18 | 1.09 | 38 | 1013.8 |
| 20260502211107 | 73 | 295 | 5.0 | 12.0 | 0.00 | 2.18 | 1.09 | 38 | 1013.8 |
| 20260502210608 | 73 | 70 | 4.0 | 12.0 | 0.00 | 2.18 | 1.09 | 40 | 1013.8 |
| 20260502210107 | 73 | 335 | 4.0 | 11.0 | 0.00 | 2.18 | 1.09 | 45 | 1013.7 |
| 20260502205838 | 73 | 81 | 4.0 | 14.0 | 0.00 | 2.18 | 1.09 | 41 | 1013.9 |
| 20260502205108 | 73 | 68 | 4.0 | 14.0 | 0.00 | 2.18 | 1.09 | 43 | 1013.9 |
| 20260502204607 | 73 | 152 | 3.0 | 10.0 | 0.00 | 2.18 | 1.09 | 45 | 1013.9 |
| 20260502204107 | 73 | 9 | 4.0 | 10.0 | 0.00 | 2.18 | 1.09 | 46 | 1013.8 |
| 20260502203607 | 73 | 44 | 4.0 | 16.0 | 0.00 | 2.18 | 1.09 | 45 | 1013.9 |
| 20260502203108 | 73 | 56 | 4.0 | 16.0 | 0.00 | 2.18 | 1.09 | 44 | 1014.0 |
| 20260502202605 | 73 | 31 | 3.0 | 12.0 | 0.00 | 2.19 | 1.09 | 46 | 1014.1 |
| 20260502202105 | 73 | 116 | 3.0 | 10.0 | 0.00 | 2.19 | 1.09 | 49 | 1014.1 |
| 20260502201606 | 73 | 323 | 4.0 | 13.0 | 0.00 | 2.19 | 1.09 | 46 | 1014.1 |
| 20260502201336 | 73 | 345 | 3.0 | 13.0 | 0.00 | 2.19 | 1.09 | 47 | 1014.1 |
| 20260502200603 | 73 | 333 | 4.0 | 12.0 | 0.00 | 2.19 | 1.09 | 50 | 1014.2 |
| 20260502195602 | 72 | 43 | 5.0 | 14.0 | 0.00 | 2.19 | 1.09 | 51 | 1014.2 |
| 20260502195106 | 72 | 35 | 4.0 | 12.0 | 0.00 | 2.19 | 1.09 | 52 | 1013.9 |
| 20260502195102 | 72 | 0 | 4.0 | 14.0 | 0.00 | 2.19 | 1.09 | 53 | 1014.0 |
| 20260502194101 | 72 | 295 | 5.0 | 12.0 | 0.00 | 2.19 | 1.09 | 54 | 1014.0 |
| 20260502193601 | 71 | 10 | 6.0 | 16.0 | 0.00 | 2.19 | 1.09 | 54 | 1014.1 |
| 20260502193102 | 71 | 56 | 6.0 | 16.0 | 0.00 | 2.19 | 1.09 | 54 | 1014.3 |
| 20260502192601 | 71 | 51 | 5.0 | 11.0 | 0.00 | 2.19 | 1.09 | 57 | 1014.3 |
| 20260502192332 | 71 | 63 | 4.0 | 11.0 | 0.00 | 2.19 | 1.09 | 56 | 1014.2 |
| 20260502191600 | 71 | 9 | 4.0 | 11.0 | 0.00 | 2.19 | 1.09 | 60 | 1014.4 |
| 20260502191059 | 71 | 115 | 4.0 | 9.0 | 0.00 | 2.19 | 1.09 | 57 | 1014.4 |
| 20260502190559 | 71 | 48 | 3.0 | 11.0 | 0.00 | 2.19 | 1.09 | 55 | 1014.6 |
| 20260502190100 | 72 | 34 | 4.0 | 14.0 | 0.00 | 2.19 | 1.09 | 56 | 1014.6 |
| 20260502185559 | 71 | 356 | 5.0 | 16.0 | 0.00 | 2.19 | 1.09 | 58 | 1014.7 |
| 20260502185330 | 71 | 87 | 6.0 | 16.0 | 0.00 | 2.19 | 1.09 | 57 | 1014.6 |
| 20260502184559 | 71 | 352 | 6.0 | 14.0 | 0.00 | 2.19 | 1.09 | 59 | 1014.6 |
| 20260502184059 | 71 | 58 | 6.0 | 14.0 | 0.00 | 2.19 | 1.09 | 56 | 1014.7 |
| 20260502183559 | 71 | 79 | 5.0 | 13.0 | 0.00 | 2.19 | 1.09 | 58 | 1014.7 |
| 20260502183057 | 71 | 56 | 3.0 | 12.0 | 0.00 | 2.19 | 1.09 | 58 | 1014.8 |
| 20260502182557 | 71 | 5 | 3.0 | 12.0 | 0.00 | 2.19 | 1.09 | 60 | 1014.9 |
| 20260502182057 | 71 | 57 | 4.0 | 13.0 | 0.00 | 2.19 | 1.09 | 62 | 1014.8 |
| 20260502181827 | 70 | 179 | 5.0 | 13.0 | 0.00 | 2.19 | 1.09 | 60 | 1014.8 |
| 20260502181101 | 70 | 271 | 4.0 | 13.0 | 0.00 | 2.19 | 1.09 | 62 | 1014.9 |
| 20260502181057 | 70 | 231 | 4.0 | 11.0 | 0.00 | 2.19 | 1.09 | 62 | 1014.8 |
| 20260502164051 | 66 | 356 | 3.0 | 12.0 | 0.00 | 2.19 | 1.09 | 76 | 1014.9 |
| 20260502163551 | 66 | 350 | 4.0 | 13.0 | 0.00 | 2.19 | 1.09 | 78 | 1015.0 |
| 20260502163051 | 65 | 70 | 4.0 | 13.0 | 0.00 | 2.19 | 1.09 | 76 | 1014.9 |
| 20260502162551 | 65 | 13 | 4.0 | 9.0 | 0.00 | 2.19 | 1.09 | 78 | 1015.1 |
| 20260502162051 | 65 | 53 | 3.0 | 9.0 | 0.00 | 2.19 | 1.09 | 79 | 1015.1 |
| 20260502161551 | 64 | 271 | 3.0 | 9.0 | 0.00 | 2.19 | 1.09 | 82 | 1015.1 |
| 20260502161051 | 64 | 20 | 4.0 | 9.0 | 0.00 | 2.19 | 1.09 | 82 | 1015.1 |
| 20260502160551 | 63 | 104 | 4.0 | 10.0 | 0.00 | 2.19 | 1.09 | 82 | 1015.0 |
| 20260502152050 | 62 | 40 | 3.0 | 7.0 | 0.00 | 2.19 | 1.09 | 87 | 1014.5 |
| 20260502151548 | 62 | 89 | 3.0 | 7.0 | 0.00 | 2.19 | 1.09 | 86 | 1014.5 |
| 20260502151047 | 62 | 319 | 2.0 | 7.0 | 0.00 | 2.19 | 1.09 | 89 | 1014.5 |
| 20260502150817 | 61 | 327 | 3.0 | 6.0 | 0.00 | 2.19 | 1.09 | 89 | 1014.4 |
| 20260502130543 | 54 | 76 | 2.0 | 6.0 | 0.01 | 2.19 | 1.09 | 95 | 1013.7 |
| 20260502123541 | 54 | 23 | 2.0 | 7.0 | 0.00 | 2.18 | 1.08 | 95 | 1013.5 |
| 20260502123041 | 54 | 6 | 2.0 | 5.0 | 0.00 | 2.18 | 1.08 | 95 | 1013.4 |
| 20260502122811 | 54 | 37 | 2.0 | 6.0 | 0.00 | 2.18 | 1.08 | 95 | 1013.4 |
| 20260502122312 | 54 | 39 | 3.0 | 8.0 | 0.00 | 2.19 | 1.08 | 95 | 1013.2 |
| 20260502121541 | 54 | 46 | 3.0 | 8.0 | 0.00 | 2.19 | 1.08 | 95 | 1012.9 |
| 20260502121311 | 54 | 18 | 3.0 | 8.0 | 0.00 | 2.19 | 1.08 | 95 | 1012.7 |
| 20260502120541 | 54 | 65 | 3.0 | 7.0 | 0.00 | 2.19 | 1.08 | 95 | 1012.8 |
| 20260502115539 | 54 | 56 | 3.0 | 8.0 | 0.01 | 2.19 | 1.08 | 95 | 1012.8 |
| 20260502115039 | 54 | 62 | 3.0 | 7.0 | 0.01 | 2.19 | 1.08 | 95 | 1012.7 |
| 20260502114538 | 54 | 33 | 3.0 | 8.0 | 0.01 | 2.19 | 1.08 | 95 | 1012.9 |
| 20260502114039 | 53 | 61 | 3.0 | 8.0 | 0.01 | 2.19 | 1.08 | 95 | 1012.9 |
| 20260502113809 | 53 | 59 | 3.0 | 7.0 | 0.02 | 2.19 | 1.08 | 95 | 1012.8 |
| 20260502113039 | 53 | 77 | 3.0 | 7.0 | 0.02 | 2.19 | 1.08 | 95 | 1012.8 |
| 20260502112539 | 53 | 57 | 3.0 | 7.0 | 0.02 | 2.19 | 1.08 | 95 | 1012.7 |
| 20260502112039 | 53 | 59 | 3.0 | 8.0 | 0.02 | 2.19 | 1.08 | 95 | 1012.5 |
| 20260502111810 | 53 | 60 | 4.0 | 8.0 | 0.02 | 2.19 | 1.08 | 95 | 1012.4 |
| 20260502111039 | 53 | 72 | 4.0 | 8.0 | 0.02 | 2.19 | 1.08 | 95 | 1012.4 |
| 20260502110538 | 53 | 72 | 3.0 | 7.0 | 0.02 | 2.19 | 1.08 | 95 | 1012.4 |
| 20260502110037 | 53 | 86 | 2.0 | 6.0 | 0.01 | 2.18 | 1.07 | 95 | 1012.4 |
| 20260502105537 | 53 | 51 | 3.0 | 10.0 | 0.01 | 2.18 | 1.07 | 95 | 1013.0 |
| 20260502105307 | 53 | 17 | 4.0 | 10.0 | 0.01 | 2.18 | 1.07 | 95 | 1012.4 |
| 20260502104809 | 53 | 345 | 4.0 | 10.0 | 0.02 | 2.18 | 1.07 | 95 | 1011.8 |
| 20260502104037 | 53 | 36 | 3.0 | 8.0 | 0.01 | 2.17 | 1.07 | 95 | 1011.8 |
| 20260502103536 | 53 | 85 | 4.0 | 7.0 | 0.03 | 2.17 | 1.06 | 95 | 1011.9 |
| 20260502103308 | 53 | 55 | 4.0 | 9.0 | 0.05 | 2.17 | 1.06 | 95 | 1011.9 |
| 20260502102537 | 53 | 101 | 4.0 | 9.0 | 0.06 | 2.17 | 1.06 | 95 | 1011.8 |
| 20260502102036 | 53 | 108 | 3.0 | 8.0 | 0.07 | 2.17 | 1.06 | 95 | 1011.9 |
| 20260502101806 | 53 | 61 | 2.0 | 8.0 | 0.10 | 2.17 | 1.06 | 95 | 1012.0 |
| 20260502101035 | 53 | 31 | 2.0 | 7.0 | 0.12 | 2.17 | 1.06 | 95 | 1012.2 |
| 20260502100539 | 53 | 53 | 4.0 | 11.0 | 0.12 | 2.17 | 1.06 | 95 | 1012.3 |
| 20260502100535 | 53 | 56 | 3.0 | 11.0 | 0.12 | 2.17 | 1.06 | 95 | 1012.3 |
| 20260502091532 | 53 | 24 | 3.0 | 9.0 | 0.12 | 2.07 | 0.96 | 95 | 1011.3 |
| 20260502091301 | 53 | 44 | 3.0 | 9.0 | 0.12 | 2.05 | 0.94 | 95 | 1011.7 |
| 20260502090531 | 53 | 51 | 3.0 | 9.0 | 0.14 | 2.05 | 0.94 | 95 | 1011.9 |
| 20260502071523 | 55 | 48 | 2.0 | 10.0 | 0.22 | 1.67 | 0.56 | 95 | 1011.1 |
| 20260502071023 | 55 | 82 | 3.0 | 10.0 | 0.21 | 1.65 | 0.54 | 95 | 1010.8 |
| 20260502070523 | 55 | 60 | 3.0 | 10.0 | 0.31 | 1.63 | 0.52 | 95 | 1010.5 |
| 20260502070023 | 55 | 101 | 3.0 | 10.0 | 0.33 | 1.62 | 0.51 | 95 | 1011.0 |
| 20260502065523 | 55 | 48 | 2.0 | 6.0 | 0.34 | 1.61 | 0.50 | 94 | 1011.1 |
| 20260502065022 | 55 | 76 | 2.0 | 6.0 | 0.38 | 1.60 | 0.49 | 94 | 1011.3 |
| 20260502064523 | 55 | 47 | 3.0 | 8.0 | 0.37 | 1.58 | 0.47 | 94 | 1011.2 |
| 20260502064023 | 55 | 35 | 2.0 | 8.0 | 0.37 | 1.57 | 0.46 | 94 | 1011.3 |
| 20260502063522 | 55 | 19 | 2.0 | 5.0 | 0.34 | 1.53 | 0.43 | 94 | 1012.3 |
| 20260502063023 | 55 | 68 | 2.0 | 5.0 | 0.29 | 1.48 | 0.38 | 94 | 1011.2 |
| 20260502062527 | 55 | 91 | 2.0 | 7.0 | 0.30 | 1.46 | 0.35 | 94 | 1011.6 |
| 20260502062523 | 55 | 16 | 2.0 | 7.0 | 0.28 | 1.46 | 0.36 | 94 | 1012.3 |
| 20260502061751 | 55 | 60 | 3.0 | 8.0 | 0.30 | 1.45 | 0.34 | 94 | 1011.4 |
| 20260502061251 | 55 | 14 | 2.0 | 8.0 | 0.31 | 1.44 | 0.33 | 94 | 1011.2 |
| 20260502060520 | 55 | 32 | 2.0 | 9.0 | 0.20 | 1.32 | 0.23 | 94 | 1011.5 |
| 20260502060251 | 55 | 65 | 4.0 | 10.0 | 0.18 | 1.29 | 0.18 | 94 | 1011.3 |
| 20260502055521 | 55 | 21 | 3.0 | 10.0 | 0.16 | 1.27 | 0.17 | 94 | 1011.3 |
| 20260502055021 | 56 | 53 | 2.0 | 7.0 | 0.11 | 1.22 | 0.12 | 94 | 1011.4 |
| 20260502054751 | 55 | 97 | 3.0 | 7.0 | 0.10 | 1.21 | 0.10 | 94 | 1012.3 |
| 20260502054020 | 55 | 76 | 3.0 | 7.0 | 0.09 | 1.20 | 0.09 | 94 | 1011.2 |
| 20260502053520 | 55 | 120 | 3.0 | 6.0 | 0.08 | 1.19 | 0.08 | 94 | 1011.6 |
| 20260502053019 | 55 | 77 | 3.0 | 7.0 | 0.08 | 1.19 | 0.08 | 94 | 1011.7 |
| 20260502052519 | 55 | 68 | 3.0 | 9.0 | 0.07 | 1.18 | 0.07 | 94 | 1011.5 |
| 20260502052250 | 55 | 359 | 2.0 | 9.0 | 0.05 | 1.16 | 0.06 | 94 | 1012.3 |
| 20260502051519 | 55 | 87 | 3.0 | 8.0 | 0.04 | 1.15 | 0.04 | 94 | 1012.3 |
| 20260502051019 | 55 | 55 | 4.0 | 8.0 | 0.02 | 1.13 | 0.03 | 94 | 1011.9 |
| 20260502050519 | 55 | 40 | 4.0 | 8.0 | 0.01 | 1.12 | 0.01 | 94 | 1011.9 |
| 20260502050018 | 55 | 57 | 4.0 | 8.0 | 0.00 | 1.11 | 0.00 | 94 | 1012.4 |
| 20260502045517 | 56 | 62 | 3.0 | 8.0 | 0.00 | 1.11 | 1.11 | 94 | 1012.0 |
| 20260502045018 | 55 | 77 | 3.0 | 7.0 | 0.01 | 1.11 | 1.11 | 94 | 1012.8 |
| 20260502044517 | 56 | 7 | 2.0 | 6.0 | 0.01 | 1.11 | 1.11 | 94 | 1013.0 |
| 20260502044017 | 56 | 56 | 2.0 | 7.0 | 0.01 | 1.11 | 1.11 | 94 | 1013.1 |
| 20260502043517 | 56 | 346 | 3.0 | 7.0 | 0.01 | 1.11 | 1.11 | 94 | 1013.1 |
| 20260502043017 | 56 | 51 | 4.0 | 9.0 | 0.01 | 1.11 | 1.11 | 94 | 1012.7 |
| 20260502042752 | 55 | 22 | 3.0 | 7.0 | 0.02 | 1.11 | 1.11 | 94 | 1012.4 |
| 20260502042517 | 55 | 47 | 5.0 | 9.0 | 0.02 | 1.11 | 1.11 | 94 | 1012.3 |
| 20260502041749 | 55 | 72 | 3.0 | 9.0 | 0.04 | 1.11 | 1.11 | 94 | 1012.4 |
| 20260502041016 | 55 | 47 | 5.0 | 10.0 | 0.06 | 1.11 | 1.11 | 94 | 1012.2 |
| 20260502040515 | 55 | 53 | 5.0 | 10.0 | 0.08 | 1.11 | 1.11 | 94 | 1011.9 |
| 20260502040016 | 55 | 52 | 5.0 | 11.0 | 0.10 | 1.11 | 1.11 | 94 | 1011.9 |
| 20260502035515 | 55 | 53 | 5.0 | 11.0 | 0.13 | 1.11 | 1.11 | 94 | 1011.9 |
| 20260502035013 | 56 | 63 | 5.0 | 10.0 | 0.13 | 1.10 | 1.10 | 94 | 1011.8 |
| 20260502034513 | 56 | 79 | 4.0 | 10.0 | 0.14 | 1.10 | 1.10 | 94 | 1012.2 |
| 20260502034012 | 56 | 20 | 3.0 | 7.0 | 0.15 | 1.10 | 1.10 | 94 | 1012.4 |
| 20260502033513 | 56 | 79 | 3.0 | 10.0 | 0.16 | 1.10 | 1.10 | 94 | 1012.5 |
| 20260502033013 | 56 | 60 | 4.0 | 10.0 | 0.20 | 1.10 | 1.10 | 94 | 1012.0 |
| 20260502032514 | 56 | 72 | 4.0 | 7.0 | 0.21 | 1.09 | 1.09 | 94 | 1012.6 |
| 20260502032013 | 56 | 98 | 3.0 | 7.0 | 0.23 | 1.09 | 1.09 | 94 | 1012.9 |
| 20260502031513 | 56 | 62 | 2.0 | 7.0 | 0.23 | 1.07 | 1.07 | 94 | 1013.1 |
| 20260502031245 | 56 | 198 | 2.0 | 6.0 | 0.24 | 1.05 | 1.05 | 94 | 1014.4 |
| 20260502030511 | 56 | 318 | 2.0 | 6.0 | 0.28 | 1.03 | 1.03 | 94 | 1013.5 |
| 20260502030012 | 56 | 72 | 0.0 | 2.0 | 0.31 | 1.01 | 1.01 | 94 | 1014.3 |
| 20260502025511 | 56 | 242 | 1.0 | 4.0 | 0.31 | 0.98 | 0.98 | 94 | 1014.8 |
| 20260502025011 | 56 | 247 | 2.0 | 4.0 | 0.32 | 0.97 | 0.97 | 94 | 1014.1 |
| 20260502024511 | 56 | 49 | 2.0 | 5.0 | 0.33 | 0.96 | 0.96 | 94 | 1013.7 |
| 20260502024012 | 56 | 81 | 2.0 | 5.0 | 0.34 | 0.95 | 0.95 | 94 | 1013.4 |
| 20260502023511 | 56 | 74 | 3.0 | 6.0 | 0.35 | 0.94 | 0.94 | 94 | 1013.2 |
| 20260502023241 | 56 | 66 | 2.0 | 6.0 | 0.35 | 0.90 | 0.91 | 94 | 1013.0 |
| 20260502022743 | 56 | 42 | 2.0 | 4.0 | 0.36 | 0.88 | 0.88 | 94 | 1013.4 |
| 20260502022011 | 56 | 114 | 3.0 | 7.0 | 0.38 | 0.86 | 0.86 | 94 | 1013.3 |
| 20260502021511 | 56 | 77 | 3.0 | 9.0 | 0.37 | 0.84 | 0.84 | 94 | 1012.9 |
| 20260502021010 | 56 | 58 | 3.0 | 9.0 | 0.35 | 0.81 | 0.81 | 94 | 1012.9 |
| 20260502020509 | 56 | 111 | 2.0 | 5.0 | 0.29 | 0.75 | 0.75 | 94 | 1013.1 |
| 20260502020241 | 56 | 83 | 2.0 | 6.0 | 0.25 | 0.70 | 0.71 | 94 | 1013.6 |
| 20260502015507 | 56 | 115 | 3.0 | 7.0 | 0.22 | 0.67 | 0.68 | 94 | 1013.2 |
| 20260502015006 | 55 | 26 | 4.0 | 7.0 | 0.20 | 0.65 | 0.65 | 94 | 1012.5 |
| 20260502014505 | 55 | 84 | 5.0 | 10.0 | 0.18 | 0.63 | 0.63 | 94 | 1012.2 |
| 20260502014005 | 55 | 34 | 5.0 | 10.0 | 0.16 | 0.61 | 0.62 | 93 | 1011.6 |
| 20260502013505 | 55 | 48 | 4.0 | 9.0 | 0.14 | 0.59 | 0.59 | 93 | 1011.8 |
| 20260502013005 | 55 | 67 | 3.0 | 8.0 | 0.12 | 0.55 | 0.56 | 93 | 1012.2 |
| 20260502012735 | 55 | 72 | 4.0 | 9.0 | 0.09 | 0.51 | 0.52 | 93 | 1012.2 |
| 20260502012234 | 55 | 69 | 4.0 | 9.0 | 0.08 | 0.48 | 0.49 | 93 | 1012.2 |
| 20260502011503 | 55 | 63 | 5.0 | 12.0 | 0.09 | 0.47 | 0.47 | 93 | 1011.9 |
| 20260502011004 | 55 | 44 | 5.0 | 12.0 | 0.11 | 0.46 | 0.47 | 93 | 1011.5 |
| 20260502010503 | 55 | 67 | 6.0 | 16.0 | 0.12 | 0.46 | 0.46 | 93 | 1011.4 |
| 20260502010003 | 55 | 18 | 7.0 | 16.0 | 0.11 | 0.45 | 0.45 | 93 | 1011.1 |
| 20260502005503 | 55 | 13 | 7.0 | 15.0 | 0.13 | 0.45 | 0.45 | 93 | 1011.2 |
| 20260502005003 | 55 | 58 | 6.0 | 15.0 | 0.20 | 0.45 | 0.45 | 93 | 1011.1 |
| 20260502004503 | 55 | 60 | 6.0 | 13.0 | 0.20 | 0.45 | 0.45 | 93 | 1011.1 |
| 20260502004003 | 56 | 41 | 5.0 | 13.0 | 0.20 | 0.45 | 0.45 | 93 | 1011.5 |
| 20260502003505 | 56 | 43 | 4.0 | 10.0 | 0.18 | 0.43 | 0.43 | 92 | 1011.6 |
| 20260502003501 | 56 | 348 | 5.0 | 10.0 | 0.19 | 0.44 | 0.44 | 92 | 1011.7 |
| 20260502002501 | 56 | 72 | 3.0 | 9.0 | 0.18 | 0.42 | 0.42 | 92 | 1012.0 |